Location: Northcutt
(34.7304°N, 84.4305°W)
Time: 11:23:29
(UTC+00:00)

deb Explorer IX - All Passes

Search period start: 05 October 2022 00:00
Search period end: 15 October 2022 00:00
Orbit: 531 x 1064 km, 38.8° (Epoch: 04 October)

Date Brightness Start Highest point End Pass type
(mag) Time Alt. Az. Time Alt. Az. Time Alt. Az.
05 Oct - 09:10:07 10° S 09:13:07 19° SE 09:16:22 10° E visible
05 Oct - 10:54:20 10° WSW 10:58:50 79° SSE 11:04:05 10° ENE visible
05 Oct - 12:40:35 10° W 12:45:28 57° N 12:51:13 10° ENE daylight
05 Oct - 14:26:55 10° WNW 14:32:25 70° NNE 14:38:50 10° E daylight
05 Oct - 16:13:14 10° WNW 16:19:07 54° SSW 16:25:44 10° SE daylight
05 Oct - 18:01:18 10° WSW 18:05:20 17° SW 18:09:32 10° S daylight
06 Oct - 08:40:02 10° S 08:42:40 16° SE 08:45:26 10° ESE visible
06 Oct - 10:23:57 10° WSW 10:28:17 73° SSE 10:33:19 10° ENE visible
06 Oct - 12:10:07 10° W 12:14:50 56° N 12:20:22 10° ENE daylight
06 Oct - 13:56:26 10° WNW 14:01:44 67° NNE 14:07:56 10° E daylight
06 Oct - 15:42:41 10° WNW 15:48:24 57° SSW 15:54:55 10° SE daylight
06 Oct - 17:30:29 10° W 17:34:38 18° SW 17:39:01 10° S daylight
07 Oct - 08:09:58 10° S 08:12:10 14° SE 08:14:26 10° ESE visible
07 Oct - 09:53:32 10° WSW 09:57:44 68° SSE 10:02:33 10° ENE visible
07 Oct - 11:39:39 10° W 11:44:12 56° N 11:49:30 10° ENE daylight
07 Oct - 13:25:58 10° WNW 13:31:02 64° NNE 13:37:00 10° E daylight
07 Oct - 15:12:08 10° WNW 15:17:41 60° SSW 15:24:04 10° SE daylight
07 Oct - 16:59:41 10° W 17:03:55 19° SW 17:08:27 10° S daylight
08 Oct - 07:40:00 10° SSE 07:41:39 12° SE 07:43:20 10° ESE night (unlit)
08 Oct - 09:23:05 10° SW 09:27:11 62° SSE 09:31:46 10° ENE visible
08 Oct - 11:09:09 10° W 11:13:32 57° N 11:18:38 10° ENE visible
08 Oct - 12:55:27 10° WNW 13:00:19 62° N 13:06:04 10° E daylight
08 Oct - 14:41:34 10° WNW 14:46:56 63° SSW 14:53:11 10° SE daylight
08 Oct - 16:28:55 10° W 16:33:11 20° SW 16:37:48 10° S daylight
09 Oct - 07:10:18 10° SSE 07:11:06 10° SE 07:11:54 10° SE night (unlit)
09 Oct - 08:52:37 10° SW 08:56:36 56° SSE 09:00:59 10° ENE visible
09 Oct - 10:38:38 10° W 10:42:54 57° N 10:47:46 10° ENE visible
09 Oct - 12:24:57 10° WNW 12:29:37 59° N 12:35:07 10° E daylight
09 Oct - 14:11:01 10° WNW 14:16:12 67° SSW 14:22:16 10° ESE daylight
09 Oct - 15:58:10 10° W 16:02:26 21° SW 16:07:06 10° S daylight
10 Oct - 08:22:07 10° SW 08:26:01 50° SSE 08:30:12 10° ENE visible
10 Oct - 10:08:04 10° W 10:12:14 58° N 10:16:55 10° ENE visible
10 Oct - 11:54:24 10° WNW 11:58:54 56° N 12:04:09 10° E daylight
10 Oct - 13:40:26 10° WNW 13:45:27 70° SSW 13:51:20 10° ESE daylight
10 Oct - 15:27:26 10° W 15:31:40 22° SW 15:36:21 10° SSE daylight
11 Oct - 07:51:35 10° SW 07:55:25 45° SSE 07:59:27 10° E visible
11 Oct - 09:37:29 10° W 09:41:33 59° N 09:46:05 10° ENE visible
11 Oct - 11:23:50 10° WNW 11:28:11 54° N 11:33:11 10° E daylight
11 Oct - 13:09:51 10° WNW 13:14:41 74° SSW 13:20:22 10° ESE daylight
11 Oct - 14:56:42 10° W 15:00:53 23° SW 15:05:34 10° SSE daylight
12 Oct - 07:21:00 10° SW 07:24:47 41° SSE 07:28:40 10° E night (unlit)
12 Oct - 09:06:51 10° W 09:10:51 61° NNW 09:15:14 10° ENE visible
12 Oct - 10:53:14 10° WNW 10:57:26 52° N 11:02:14 10° E visible
12 Oct - 12:39:15 10° WNW 12:43:55 78° SSW 12:49:24 10° ESE daylight
12 Oct - 14:25:58 10° W 14:30:06 24° SSW 14:34:44 10° SSE daylight
13 Oct - 06:50:23 10° SW 06:54:07 37° SSE 06:57:52 10° E night (unlit)
13 Oct - 08:36:10 10° W 08:40:10 63° NNW 08:44:25 10° ENE visible
13 Oct - 10:22:36 10° WNW 10:26:41 50° N 10:31:16 10° E visible
13 Oct - 12:08:38 10° WNW 12:13:09 83° SSW 12:18:24 10° ESE daylight
13 Oct - 13:55:14 10° W 13:59:18 25° SSW 14:03:52 10° SSE daylight
14 Oct - 06:19:43 10° SW 06:23:26 34° SSE 06:27:05 10° E night (unlit)
14 Oct - 08:05:28 10° W 08:09:26 66° NNW 08:13:35 10° ENE visible
14 Oct - 09:51:56 10° WNW 09:55:56 48° N 10:00:18 10° E visible
14 Oct - 11:37:59 10° WNW 11:42:22 87° SSW 11:47:25 10° ESE daylight
14 Oct - 13:24:29 10° W 13:28:29 26° SSW 13:32:59 10° SSE daylight
